Location: Colle Santa Colomba
(42.0333°N, 12.5667°E)
Time: 02:18:56
(UTC+00:00)

CZ-4 R/B - Pass Details

Date: 25 October 2021
Orbit: 531 x 595 km, 97.8° (Epoch: 28 November)

Event Time Altitude Azimuth Distance (km) Brightness Sun altitude
Exits shadow 18:01:10 13° 169° (SSE) 1,695 3.7 -20.7°
Maximum altitude 18:04:49 84° 258° (WSW) 581 1.3 -21.4°
Drops below altitude 10° 18:08:57 10° 346° (NNW) 1,905 4.2 -22.2°
Sets 18:11:08 0° 347° (NNW) 2,818 5.1 -22.6°
